| time (UTC) | temp F | wind direction | speed MPH | gust MPH | rain 1hr in | rain 24hr in | rain mn in | humidity % | barometer mb |
| 20260904000031 | 89 | 140 | 11.0 | 17.0 | 0.00 | 0.00 | 0.00 | 74 | 1009.6 |
| 20260903234528 | 89 | 130 | 10.0 | 16.0 | 0.00 | 0.00 | 0.00 | 73 | 1009.5 |
| 20260903233027 | 90 | 174 | 7.0 | 17.0 | 0.00 | 0.00 | 0.00 | 72 | 1009.3 |
| 20260903231529 | 90 | 139 | 10.0 | 17.0 | 0.00 | 0.00 | 0.00 | 70 | 1009.2 |
| 20260903230036 | 90 | 119 | 8.0 | 19.0 | 0.00 | 0.00 | 0.00 | 72 | 1009.0 |
| 20260903224532 | 91 | 147 | 12.0 | 21.0 | 0.00 | 0.00 | 0.00 | 71 | 1008.8 |
| 20260903223028 | 91 | 148 | 6.0 | 17.0 | 0.00 | 0.00 | 0.00 | 72 | 1008.8 |
| 20260903221525 | 91 | 161 | 10.0 | 17.0 | 0.00 | 0.00 | 0.00 | 69 | 1008.8 |
| 20260903220026 | 92 | 154 | 8.0 | 18.0 | 0.00 | 0.00 | 0.00 | 70 | 1008.8 |
| 20260903214529 | 92 | 163 | 10.0 | 19.0 | 0.00 | 0.00 | 0.00 | 66 | 1009.0 |
| 20260903213031 | 92 | 159 | 9.0 | 21.0 | 0.00 | 0.00 | 0.00 | 65 | 1008.9 |
| 20260903211529 | 93 | 161 | 8.0 | 18.0 | 0.00 | 0.00 | 0.00 | 65 | 1009.1 |
| 20260903210021 | 93 | 150 | 6.0 | 17.0 | 0.00 | 0.00 | 0.00 | 67 | 1009.0 |
| 20260903204519 | 93 | 98 | 8.0 | 20.0 | 0.00 | 0.00 | 0.00 | 65 | 1009.1 |
| 20260903203019 | 93 | 205 | 9.0 | 20.0 | 0.00 | 0.00 | 0.00 | 67 | 1009.2 |
| 20260903201529 | 93 | 158 | 10.0 | 19.0 | 0.00 | 0.00 | 0.00 | 66 | 1009.4 |
| 20260903200015 | 94 | 136 | 8.0 | 20.0 | 0.00 | 0.00 | 0.00 | 66 | 1009.4 |
| 20260903194514 | 93 | 165 | 8.0 | 20.0 | 0.00 | 0.00 | 0.00 | 66 | 1009.5 |
| 20260903193012 | 94 | 148 | 9.0 | 18.0 | 0.00 | 0.00 | 0.00 | 65 | 1009.6 |
| 20260903191511 | 93 | 145 | 8.0 | 19.0 | 0.00 | 0.00 | 0.00 | 67 | 1009.8 |
| 20260903190010 | 94 | 119 | 7.0 | 17.0 | 0.00 | 0.00 | 0.00 | 66 | 1009.8 |
| 20260903184508 | 95 | 175 | 10.0 | 19.0 | 0.00 | 0.00 | 0.00 | 65 | 1010.0 |
| 20260903183006 | 96 | 147 | 9.0 | 21.0 | 0.00 | 0.00 | 0.00 | 63 | 1010.1 |
| 20260903181503 | 97 | 158 | 7.0 | 18.0 | 0.00 | 0.00 | 0.00 | 60 | 1010.3 |
| 20260903180000 | 98 | 181 | 6.0 | 14.0 | 0.00 | 0.00 | 0.00 | 56 | 1010.4 |
| 20260903174600 | 98 | 202 | 6.0 | 17.0 | 0.00 | 0.00 | 0.00 | 55 | 1010.6 |
| 20260903173056 | 98 | 170 | 9.0 | 17.0 | 0.00 | 0.00 | 0.00 | 55 | 1010.9 |
| 20260903171551 | 97 | 227 | 8.0 | 15.0 | 0.00 | 0.00 | 0.00 | 55 | 1011.1 |
| 20260903170059 | 97 | 186 | 8.0 | 16.0 | 0.00 | 0.00 | 0.00 | 56 | 1011.2 |
| 20260903164547 | 96 | 164 | 8.0 | 18.0 | 0.00 | 0.00 | 0.00 | 57 | 1011.3 |
| 20260903163045 | 95 | 200 | 7.0 | 14.0 | 0.00 | 0.00 | 0.00 | 59 | 1011.3 |
| 20260903161544 | 95 | 211 | 8.0 | 13.0 | 0.00 | 0.00 | 0.00 | 61 | 1011.4 |
| 20260903160039 | 93 | 214 | 6.0 | 15.0 | 0.00 | 0.00 | 0.00 | 63 | 1011.5 |
| 20260903154544 | 93 | 186 | 8.0 | 17.0 | 0.00 | 0.00 | 0.00 | 64 | 1011.6 |
| 20260903153032 | 92 | 184 | 7.0 | 14.0 | 0.00 | 0.00 | 0.00 | 66 | 1011.6 |
| 20260903151527 | 91 | 175 | 6.0 | 13.0 | 0.00 | 0.00 | 0.00 | 69 | 1011.6 |
| 20260903150025 | 90 | 193 | 6.0 | 14.0 | 0.00 | 0.00 | 0.00 | 69 | 1011.8 |
| 20260903144520 | 89 | 214 | 2.0 | 14.0 | 0.00 | 0.00 | 0.00 | 72 | 1011.8 |
| 20260903143017 | 89 | 177 | 8.0 | 14.0 | 0.00 | 0.00 | 0.00 | 72 | 1011.8 |
| 20260903141520 | 88 | 198 | 8.0 | 13.0 | 0.00 | 0.00 | 0.00 | 74 | 1011.9 |
| 20260903140014 | 87 | 148 | 6.0 | 12.0 | 0.00 | 0.00 | 0.00 | 77 | 1011.9 |
| 20260903134508 | 86 | 169 | 6.0 | 11.0 | 0.00 | 0.00 | 0.00 | 78 | 1011.8 |
| 20260903133007 | 86 | 195 | 5.0 | 10.0 | 0.00 | 0.00 | 0.00 | 79 | 1011.7 |
| 20260903131506 | 85 | 178 | 4.0 | 11.0 | 0.00 | 0.00 | 0.00 | 81 | 1011.8 |
| 20260903130005 | 84 | 213 | 3.0 | 7.0 | 0.00 | 0.00 | 0.00 | 83 | 1011.7 |
| 20260903124504 | 83 | 191 | 2.0 | 9.0 | 0.00 | 0.00 | 0.00 | 84 | 1011.6 |
| 20260903123005 | 83 | 177 | 1.0 | 7.0 | 0.00 | 0.00 | 0.00 | 85 | 1011.5 |
| 20260903121506 | 83 | 202 | 0.0 | 7.0 | 0.00 | 0.00 | 0.00 | 85 | 1011.4 |
| 20260903120001 | 83 | 201 | 2.0 | 9.0 | 0.00 | 0.00 | 0.00 | 85 | 1011.2 |
| 20260903114601 | 83 | 219 | 4.0 | 10.0 | 0.00 | 0.00 | 0.00 | 85 | 1011.2 |
| 20260903113059 | 83 | 163 | 3.0 | 9.0 | 0.00 | 0.00 | 0.00 | 85 | 1011.1 |
| 20260903111606 | 83 | 199 | 3.0 | 8.0 | 0.00 | 0.00 | 0.00 | 85 | 1011.3 |
| 20260903110056 | 83 | 196 | 0.0 | 7.0 | 0.00 | 0.00 | 0.00 | 85 | 1011.5 |
| 20260903104617 | 83 | 178 | 3.0 | 9.0 | 0.00 | 0.00 | 0.00 | 84 | 1011.2 |
| 20260903103103 | 84 | 192 | 5.0 | 10.0 | 0.00 | 0.00 | 0.00 | 84 | 1011.2 |
| 20260903101555 | 84 | 211 | 3.0 | 9.0 | 0.00 | 0.00 | 0.00 | 84 | 1011.3 |
| 20260903100053 | 84 | 205 | 4.0 | 9.0 | 0.00 | 0.00 | 0.00 | 84 | 1011.3 |
| 20260903094551 | 84 | 178 | 5.0 | 9.0 | 0.00 | 0.00 | 0.00 | 83 | 1011.2 |
| 20260903093059 | 84 | 200 | 4.0 | 11.0 | 0.00 | 0.00 | 0.00 | 83 | 1011.4 |
| 20260903091552 | 84 | 196 | 5.0 | 9.0 | 0.00 | 0.00 | 0.00 | 83 | 1011.4 |
| 20260903090047 | 84 | 190 | 4.0 | 10.0 | 0.00 | 0.00 | 0.00 | 83 | 1011.6 |
| 20260903084548 | 84 | 175 | 5.0 | 14.0 | 0.00 | 0.00 | 0.00 | 83 | 1011.5 |
| 20260903083050 | 84 | 205 | 8.0 | 15.0 | 0.00 | 0.00 | 0.00 | 83 | 1011.6 |
| 20260903081553 | 84 | 167 | 7.0 | 14.0 | 0.00 | 0.00 | 0.00 | 82 | 1011.6 |
| 20260903080041 | 84 | 200 | 4.0 | 14.0 | 0.00 | 0.00 | 0.00 | 82 | 1011.7 |
| 20260903074542 | 85 | 221 | 5.0 | 13.0 | 0.00 | 0.00 | 0.00 | 82 | 1011.9 |
| 20260903073038 | 85 | 203 | 6.0 | 11.0 | 0.00 | 0.00 | 0.00 | 82 | 1012.0 |
| 20260903071536 | 85 | 188 | 5.0 | 8.0 | 0.00 | 0.00 | 0.00 | 82 | 1012.1 |
| 20260903070035 | 85 | 202 | 7.0 | 13.0 | 0.00 | 0.00 | 0.00 | 82 | 1012.3 |
| 20260903064537 | 85 | 188 | 8.0 | 13.0 | 0.00 | 0.00 | 0.00 | 82 | 1012.2 |
| 20260903063038 | 85 | 194 | 4.0 | 10.0 | 0.00 | 0.00 | 0.00 | 82 | 1012.4 |
| 20260903061529 | 85 | 183 | 5.0 | 11.0 | 0.00 | 0.00 | 0.00 | 82 | 1012.4 |
| 20260903060029 | 85 | 174 | 6.0 | 10.0 | 0.00 | 0.00 | 0.00 | 82 | 1012.2 |
| 20260903054527 | 85 | 237 | 4.0 | 11.0 | 0.00 | 0.00 | 0.00 | 82 | 1012.3 |
| 20260903053025 | 85 | 198 | 3.0 | 10.0 | 0.00 | 0.00 | 0.00 | 81 | 1012.4 |
| 20260903051523 | 85 | 161 | 7.0 | 12.0 | 0.00 | 0.00 | 0.00 | 81 | 1012.5 |
| 20260903050037 | 86 | 211 | 6.0 | 13.0 | 0.00 | 0.00 | 0.00 | 80 | 1012.5 |
| 20260903044521 | 86 | 188 | 7.0 | 16.0 | 0.00 | 0.00 | 0.00 | 81 | 1012.3 |
| 20260903043020 | 86 | 195 | 7.0 | 17.0 | 0.00 | 0.00 | 0.00 | 81 | 1012.4 |
| 20260903041520 | 86 | 172 | 7.0 | 14.0 | 0.00 | 0.00 | 0.00 | 81 | 1012.5 |
| 20260903040019 | 86 | 185 | 7.0 | 15.0 | 0.00 | 0.00 | 0.00 | 81 | 1012.4 |
| 20260903034519 | 86 | 122 | 9.0 | 16.0 | 0.00 | 0.00 | 0.00 | 81 | 1012.4 |
| 20260903033018 | 86 | 136 | 6.0 | 13.0 | 0.00 | 0.00 | 0.00 | 81 | 1012.3 |
| 20260903031517 | 86 | 129 | 7.0 | 12.0 | 0.00 | 0.00 | 0.00 | 81 | 1012.4 |
| 20260903030019 | 86 | 134 | 4.0 | 12.0 | 0.00 | 0.00 | 0.00 | 80 | 1012.0 |
| 20260903024517 | 86 | 157 | 6.0 | 14.0 | 0.00 | 0.00 | 0.00 | 80 | 1011.9 |
| 20260903023025 | 86 | 122 | 7.0 | 14.0 | 0.00 | 0.00 | 0.00 | 79 | 1011.6 |
| 20260903021519 | 86 | 187 | 6.0 | 13.0 | 0.00 | 0.00 | 0.00 | 79 | 1011.4 |
| 20260903020045 | 86 | 148 | 8.0 | 15.0 | 0.00 | 0.00 | 0.00 | 79 | 1011.2 |
| 20260903014514 | 87 | 126 | 6.0 | 12.0 | 0.00 | 0.00 | 0.00 | 79 | 1011.0 |
| 20260903013013 | 87 | 212 | 7.0 | 17.0 | 0.00 | 0.00 | 0.00 | 79 | 1010.8 |
| 20260903011513 | 87 | 176 | 8.0 | 18.0 | 0.00 | 0.00 | 0.00 | 78 | 1010.8 |
| 20260903010012 | 87 | 157 | 10.0 | 16.0 | 0.00 | 0.00 | 0.00 | 77 | 1010.6 |
| 20260903004512 | 87 | 169 | 11.0 | 16.0 | 0.00 | 0.00 | 0.00 | 77 | 1010.5 |
| 20260903003011 | 88 | 188 | 9.0 | 17.0 | 0.00 | 0.00 | 0.00 | 75 | 1010.4 |
| 20260903001510 | 89 | 163 | 9.0 | 17.0 | 0.00 | 0.00 | 0.00 | 74 | 1010.3 |